WESTFORD NEEDLES, 2380

Orbit data source: Space-Track

WESTFORD NEEDLES, 2380 is space debris in LEO originally from a launch on Thu, 09 May 1963 UTC launched from the Air Force Western Test Range (AFWTR). Debris objects in space refer to the collection of defunct objects orbiting the Earth. Examples of debris include non-operational satellites, rocket bodies, and fragments generated from explosions, collisions, or faulty payload assembly.

Loading next visibility...
Identifier
2380, 1963-014AA
Orbit
LEO
Country
Flag of USUS
Related business
Manufacturer
Unknown
Mission
Spacecraft
Bus & Motor
Unknown
Mass
Unknown
Launch date (UTC)
1963-05-09 (63 years ago)
Launch vehicle
Unknown
Launch site
Air Force Western Test Range (AFWTR)
Object type
Payload
Rocket body
Debris
Shape & HBR
Unknown shape, 0.2 m
Radar Cross Section
Medium (>0.1 m² and <1 m²)

Expand to show TLE details & history
Last TLE update: 3 days ago

TLE from 3 days ago
0 WESTFORD NEEDLES
1 02380U 63014AA  26173.12736393  .00001100  00000-0  42196+0 0  9993
2 02380  87.1914  77.1939 0571276 152.5940 210.6302  8.68412712391506
Epoch: 2026-06-22T03:03Z
TLE epoch observation values (Epoch: 2026-06-22T03:03:24.243Z)
Latitude
0.00001°
Longitude
121.02515°
Altitude
4,121.59 km
Speed
6.006 km/s
True Right ascension
05h 08m 46s
True Declination
0° 00' 00"
Sunlit
Object was in daylight at epoch
Visualization orbit readout
Latitude
Unknown
Longitude
Unknown
Altitude
Unknown
Speed
Unknown
Apparent Right ascension
Unknown
Apparent Declination
Unknown
Sunlit
N/A
Visualization observer readout
Local Sidereal Time
03:40:25
Azimuth
Unknown
Elevation
Unknown
Doppler factor
Unknown
Orbital elements
Apogee altitude
4,188.821 km
Perigee altitude
3,046.735 km
Semi-major axis
9,995.915 km
Eccentricity
0.05713
Inclination
87.1914°
RAAN
77.1939°
Arg. of periapsis
152.594°
True anomaly
207.48992°
Mean anomaly
210.6302°
Eccentric anomaly
209.04127°
Mean motion
2.17175 °/min
Orbital period
165.77 mins
BSTAR
0.42196
Loading maneuver chart data...
Computing Atmospheric mass density...

Documentation

Showing up to 5 results
|